Regional Weather Roundup
Issued by NWS Charleston, SC

Current Version | Previous Version | Text Only | Print | Product List | Glossary Off
Versions: 1 2 3 4 5 6 7 8 9 10 11 12 13 14 15 16 17 18 19 20 21 22 23 24 25 26 27 28 29 30 31 32 33 34 35 36 37 38 39 40 41 42 43 44 45 46 47 48 49 50
000 ASUS42 KCHS 192025 RWRCHS REGIONAL WEATHER ROUNDUP NATIONAL WEATHER SERVICE CHARLESTON SC 400 PM EDT TUE AUG 19 2014 NOTE: "FAIR" INDICATES FEW OR NO CLOUDS BELOW 12,000 FEET WITH NO SIGNIFICANT WEATHER AND/OR OBSTRUCTIONS TO VISIBILITY. NOT ALL STATIONS ARE QUALITY CONTROLLED BY THE NATIONAL WEATHER SERVICE. USE DATA WITH CAUTION...ESPECIALLY DEWPOINT OBSERVATIONS. SCZ027-030-031-034>040-042>050-192100- ...SOUTH CAROLINA... CITY SKY/WX TMP DP RH WIND PRES REMARKS N CHARLESTON MOSUNNY 91 72 53 SW9G17 29.84F HX 98 WATERFRONT PRK N/A 90 N/A N/A SW12G17 N/A FORT JOHNSON NOT AVBL MOUNT PLEASANT FAIR 90 73 58 SW13 29.84F HX 98 JOHNS ISLAND TSTM 79 75 89 W3G21 29.86S PINOPOLIS N/A 90 73 58 SW9G16 29.76F HX 98 MONCKS CORNER NOT AVBL SUMMERVILLE FAIR 90 72 55 W14 29.84F HX 96 BEAUFORT MCAS CLOUDY 82 72 71 W14 29.88F BEAUFORT ARPT FAIR 81 73 78 SW10G16 29.87F HILTON HEAD IS PTSUNNY 75 73 94 SW8 29.90F GEORGETOWN NOT AVBL WALTERBORO PTCLDY 88 68 51 SW12 29.85F HX 91 ORANGEBURG MOSUNNY 91 69 48 W13 29.84F HX 96 BARNWELL CLOUDY 91 72 52 SW10 29.85F HX 98 AIKEN FAIR 90 73 58 W10 29.89F HX 98 MANNING FAIR 88 73 62 W3 29.83F HX 96 KINGSTREE NOT AVBL COLUMBIA MOSUNNY 91 70 49 SW10 29.83F HX 96 SUMTER MOSUNNY 85 73 68 NW10 29.83F HX 92 FLORENCE LGT RAIN 77 73 87 W3 29.84F MYRTLE BEACH PTSUNNY 90 70 51 W12 29.82F HX 95 N MYRTLE BEACH PTSUNNY 91 70 49 W10G20 29.81F HX 96 $$ GAZ063-065-086>088-099>101-113>116-118-119-134-136>141-150-192100- ...GEORGIA... CITY SKY/WX TMP DP RH WIND PRES REMARKS SAVANNAH ARPT CLOUDY 80 73 79 W8 29.91F HUNTER AAF PTSUNNY 81 76 84 W9 29.89F FORT STEWART PTSUNNY 82 73 73 SW9 29.91F STATESBORO NOT AVBL SYLVANIA CLOUDY 82 76 83 SW7 29.89F CLAXTON FAIR 81 77 89 CALM 29.92R THOMSON MOSUNNY 91 76 61 W7 29.91S HX 102 AUGUSTA-BUSH PTSUNNY 91 70 49 W8 29.84F HX 96 AUGUSTA-DANIEL PTSUNNY 92 68 45 W9G18 29.87F HX 96 SWAINSBORO FAIR 86 79 79 SW7 29.90S HX 99 VIDALIA N/A 81 73 78 S6 29.91F ALMA PTSUNNY 85 75 72 SW7 29.93F HX 93 WAYCROSS MOSUNNY 87 75 67 SW9 29.92F HX 97 JESUP N/A 82 77 83 CALM 29.93S HX 91 BRUNSWICK MOSUNNY 84 70 61 W5 29.94F SAINT SIMONS TSTM 79 74 84 NW8 29.95R $$ SCZ027-028-034-036>038-045-046-048>050-GAZ119-141-192100- ...LAKE AND SUPPLEMENTAL COASTAL OBSERVATIONS... STATION/POSITION TIME TEMP WIND PRES WAVE SWELL AIR SEA DIR/SP/G HT/PER HT/PER/DIR (UTC) (F) (DEG/KT/KT) (MB) (FT/S) (FT/S/D) UPR LAKE MARION NOT AVBL WINYAH BAY 2000 89 240/ 10 1010.0S LAKE MURRAY 1900 86 180/ 3/ 6 1010.2F ACE BASIN NERRS 2000 78 250/ 3 1012.0S FORT PULASKI 2000 81 260/ 9/ 12 1012.6F SAPELO ISLAND 2000 160/ 4 1014.0S $$ ANZ835-935-AMZ111-154-330-350-352-354-374-450-454-472-192100- ...C-MAN AND BUOY OBSERVATIONS... STATION/POSITION TIME TEMP WIND PRES WAVE SWELL AIR SEA DIR/SP/G HT/PER HT/PER/DIR (UTC) (F) (DEG/KT/KT) (MB) (FT/S) (FT/S/D) FOLLY BEACH CMAN 2000 76 240/ 26/ 34 1011.9F BUOY 41004 2000 83 83 220/ 19/ 23 1010.6F 5/ 6 2/ 9 BUOY 41008 2000 83 85 330/ 4/ 6 1013.3F 2/ 4 5E ST. MARYS GA 2000 84 N/A 1/13 FRYING PAN BUOY NOT AVBL BUOY 41025 2000 80 250/ 14/ 16 1009.0F 4/ 7 2/210/ 7 CAPE LOOKOUT NC 2000 83 230/ 13/ 16 1009.3F BUOY 41002 1906 82 81 260/ 16/ 21 1013.4 5/ 7 BUOY 41010 2000 85 86 270/ 8/ 10 1015.4F 3/ 5 3/270/ 5 BUOY 41012 NOT AVBL ST AUGUSTINE FL 2000 92 260/ 12/ 14 1015.1F CAPERS NEARSHORE 1900 85 220/ 17/ 19 N/A FRIPP NEARSHORE NOT AVBL $$

USA.gov is the U.S. government's official web portal to all federal, state and local government web resources and services.